Skip Page Navigation
NASA JPL Caltech
NASA Logo - Jet Propulsion Laboratory + View the NASA Portal
+ Near-Earth Object (NEO) Program
Search JPL
JPL Home Earth Solar System Stars & Galaxies Technology
JPL Solar System Dynamics
BODIES ORBITS EPHEMERIDES TOOLS PHYSICAL DATA DISCOVERY FAQ SITE MAP
JPL Small-Body Database Browser
Search: [ help ]  
21653 Davidwang (1999 OH3)
Classification: Main-belt Asteroid          SPK-ID: 2021653
Ephemeris | Orbit Diagram | Orbital Elements | Physical Parameters | Discovery Circumstances ]

[ hide orbit diagram ]
Orbit Diagram
Note: Make sure you have Java enabled on your browser to see the applet. This applet is provided as a 3D orbit visualization tool. The applet was implemented using 2-body methods, and hence should not be used for determining accurate long-term trajectories (over several years or decades) or planetary encounter circumstances. For accurate long-term ephemerides, please instead use our Horizons system.
Orbit Viewer

Additional Notes: the orbits shown in the applet are color coded. The planets are white lines, and the asteroid/comet is a blue line. The bright white line indicates the portion of the orbit that is above the ecliptic plane, and the darker portion is below the ecliptic plane. Likewise for the asteroid/comet orbit, the light blue indicates the portion above the ecliptic plane, and the dark blue the portion below the ecliptic plane.

Orbit Viewer applet originally written and kindly provided by Osamu Ajiki (AstroArts), and further modified by Ron Baalke (JPL).


Orbital Elements at Epoch 2456400.5 (2013-Apr-18.0) TDB
Reference: MPO240380 (heliocentric ecliptic J2000)
 Element Value Uncertainty (1-sigma)   Units 
e 0.2119507 n/a  
a 2.7876429 n/a AU
q 2.1968000 n/a AU
i 18.87425 n/a deg
node 243.90621 n/a deg
peri 98.06213 n/a deg
M 359.87514 n/a deg
tp 2456401.0896237
(2013-Apr-18.58962370)
n/a JED
period 1700.0203577
4.65
n/a
n/a
d
yr
n 0.21176217 n/a deg/d
Q 3.3784858 n/a AU
  Orbit Determination Parameters
   # obs. used (total)      464  
   first obs. used      1993-??-??  
   last obs. used      2012-09-02  
   # oppositions      13  
   planetary ephem.      DE403  
   condition code      0  
   fit RMS      0.55  
   data source      MPC:mpn  
   producer      MPCLINUX  

Additional Information
 T_jup = 3.220 

Ephemeris | Orbit Diagram | Orbital Elements | Physical Parameters | Discovery Circumstances ]

Physical Parameter Table
Parameter Symbol Value Units Sigma Reference Notes
absolute magnitude H 13.8 mag n/a PDS3 (MPO 8819)  

21653 Davidwang           Discovered 1999 July 22 by the Lincoln Laboratory Near-Earth Asteroid Research Team at Socorro.
David Jueyu Wang (b. 1989) was awarded first place in the 2006 Intel International Science and Engineering Fair for his botany project. He attends the A.B. Lucas Secondary School, London, Ontario, Canada.
NOTE: some special characters may not display properly (any characters within {} are an attempt to place the proper accent above a character)
Reference: 20060711/MPCPages.arcLast Updated: 2006-07-17

Alternate Designations
 1999 OH3 = 1998 KN38 
Ephemeris | Orbit Diagram | Orbital Elements | Physical Parameters | Discovery Circumstances ]
ABOUT SSD CREDITS/AWARDS PRIVACY/COPYRIGHT GLOSSARY LINKS
FirstGov 2013-May-23 06:44 UT
(server date/time)  
NASA Home Page
Site Manager:   Donald K. Yeomans
Webmaster  Alan B. Chamberlin